Regional Weather Roundup
Issued by NWS Sioux Falls, SD

Home | Current Version | Previous Version | Graphics & Text | Print | Product List | Glossary Off
Versions: 1 2 3 4 5 6 7 8 9 10 11 12 13 14 15 16 17 18 19 20 21 22 23 24 25 26 27 28 29 30 31 32 33 34 35 36 37 38 39 40 41 42 43 44 45 46 47 48 49 50

000
ASUS43 KFSD 181702
RWRFSD

WEATHER ROUNDUP FOR SE SOUTH DAKOTA/SW MINNESOTA/NW IOWA
NATIONAL WEATHER SERVICE SIOUX FALLS SD
1200 PM CDT WED OCT 18 2017

NOTE: "FAIR" INDICATES FEW OR NO CLOUDS BELOW 12,000 FEET WITH NO
SIGNIFICANT WEATHER AND OR OBSTRUCTIONS TO VISIBILITY.


SDZ038>040-050-052>070-181800-
SOUTHEAST SOUTH DAKOTA

CITY           SKY/WX    TMP DP  RH WIND       PRES   REMARKS
BROOKINGS      SUNNY     64  34  32 N16G24    29.92R
CHAMBERLAIN    NOT AVBL
HURON          SUNNY     64  36  35 N17G25    29.94R
MADISON        FAIR      64  32  29 N26G33    29.92R
MITCHELL       SUNNY     67  31  26 N25       29.95R
SIOUX FALLS    PTSUNNY   66  42  41 N20G29    29.91R
WINNER         FAIR      66  35  31 N23G31    30.02R
YANKTON        SUNNY     66  40  38 N22       29.92R
$$

MNZ071-072-080-081-089-090-097-098-181800-
SOUTHWEST MINNESOTA

CITY           SKY/WX    TMP DP  RH WIND       PRES   REMARKS
FAIRMONT       SUNNY     64  49  57 W13       29.89R
JACKSON        MOSUNNY   63  45  51 W14G23    29.90R
MARSHALL       MOSUNNY   68  34  28 N20G28    29.89R
MONTEVIDEO     MOSUNNY   66  36  32 N20G28    29.88R
PIPESTONE      MOSUNNY   64  37  36 N16       29.91R
REDWOOD FALLS  SUNNY     68  40  35 NW13      29.86R
TRACY          SUNNY     68  39  33 N22       29.89R
WORTHINGTON    CLOUDY    63  44  50 NW15G22   29.91R
$$

IAZ001>003-012>014-020>022-031-032-NEZ013-014-SDZ071-181800-
NORTHWEST IOWA

CITY           SKY/WX    TMP DP  RH WIND       PRES   REMARKS
CHEROKEE       MOSUNNY   65  50  57 SW8       29.89R
DENISON        MOSUNNY   64  46  52 SW8G21    29.91S
ESTHERVILLE    SUNNY     67  48  50 W18       29.89R
LE MARS        SUNNY     68  43  40 VRB7G13   29.90R
ORANGE CITY    SUNNY     66  46  48 W13       29.90R
SHELDON        SUNNY     66  45  45 W10       29.89R
SIOUX CITY     SUNNY     67  47  48 W7        29.90R
SPENCER        PTSUNNY   67  46  47 W17       29.89R
STORM LAKE     MOSUNNY   66  46  48 SW16      29.89R
$$

ABBREVIATIONS USED IN REMARKS
   TC - TEMPERATURE IN CELSIUS
  WCI - WIND CHILL INDEX
   HX - HEAT INDEX
  VSB - VISIBILITY




USA.gov is the U.S. government's official web portal to all federal, state and local government web resources and services.